Location: *
(50.8160°S, 176.0219°W)
Time: 23:46:36
(UTC+00:00)

Cosmos 1356 Rocket - Pass Details

Date: 19 May 2026
Orbit: 514 x 555 km, 81.1° (Epoch: 9 June)

Event Time Altitude Azimuth Distance (km) Brightness Sun altitude
Rises 17:16:37 0° 356° (N) 2,716 6.9 -19.0°
Reaches altitude 10° 17:18:46 10° 358° (N) 1,837 6.1 -18.7°
Maximum altitude 17:22:48 69° 81° (E) 607 3.6 -18.0°
Drops below altitude 10° 17:26:56 10° 163° (SSE) 1,881 6.1 -17.4°
Sets 17:29:09 0° 165° (SSE) 2,787 7.0 -17.1°
